This demonstration page uses our WeatherBlox Daily Observations layout. Learn more.

Left ArrowRight Arrow

38.80484, -77.04692

Hourly Observations for February 13, 2016

Temp ( °F °C ) Dew Point ( °F °C ) Humidity (%) Winds ( mph kmh ) Pressure ( in mb ) Visibility ( mi km ) Precip ( " mm )
12:52 am 00:52 Mostly Clear 27 -2.8 17 -8.3 66 66 W 8 13 30.01 1016 10 16 0.00 0.00
1:52 am 01:52 Partly Cloudy 27 -2.8 13 -10.6 55 55 NW 8 13 30.01 1016 10 16 0.00 0.00
2:52 am 02:52 Cloudy 28 -2.2 11 -11.7 49 49 W 13 20 30.02 1017 10 16 0.00 0.00
3:52 am 03:52 Partly Cloudy 26 -3.3 11 -11.7 53 53 WNW 21 33 30.04 1017 10 16 0.00 0.00
4:52 am 04:52 Partly Cloudy 24 -4.4 5 -15 44 44 WNW 23 37 30.09 1019 10 16 0.00 0.00
5:34 am 05:34 Mostly Cloudy 25 -4 5 -15 42 42 NW 21 33 30.12 1020 10 16 0.00 0.00
5:52 am 05:52 Windy with Snow Likely 23 -5 6 -14.4 48 48 WNW 24 39 30.12 1020 9 14 0.00 0.03
6:52 am 06:52 Mostly Cloudy with Light Snow 22 -5.6 8 -13.3 55 55 WNW 24 39 30.16 1021 7 11 0.00 0.03
7:05 am 07:05 Cloudy with Light Snow 22 -5.6 8 -13.3 55 55 WNW 17 28 30.18 1022 8 13 0.00 0.03
7:31 am 07:31 Windy with Snow Likely 22 -5.6 11 -11.7 63 63 NNW 20 31 30.21 1023 10 16 0.00 0.03
7:38 am 07:38 Cloudy with Light Snow 21 -6 14 -10 74 74 NNW 17 28 30.21 1023 5 8 0.00 0.00
7:44 am 07:44 Cloudy with Light Snow 21 -6 12 -11 68 68 NNW 14 22 30.21 1023 7 11 0.00 0.00
7:52 am 07:52 Cloudy 21 -6.1 10 -12.2 62 62 NW 16 26 30.20 1023 10 16 0.00 0.03
7:59 am 07:59 Cloudy 21 -6.1 12 -11.1 68 68 NW 15 24 30.21 1023 10 16 0.00 0.00
8:11 am 08:11 Cloudy with Light Snow 21 -6.1 14 -10 74 74 WNW 13 20 30.21 1023 2 2 0.00 0.03
8:22 am 08:22 Cloudy with Light Snow 19 -7 12 -11 73 73 NW 12 19 30.24 1024 3 4 0.00 0.00
8:24 am 08:24 Mostly Cloudy with Light Snow 19 -7 12 -11 73 73 NW 13 20 30.24 1024 7 11 0.00 0.00
8:37 am 08:37 Cloudy with Light Snow 21 -6.1 10 -12.2 62 62 NW 14 22 30.24 1024 8 13 0.00 0.03
8:42 am 08:42 Cloudy with Light Snow 21 -6 10 -12 63 63 W 16 26 30.24 1024 1 1 0.00 0.00
8:46 am 08:46 Cloudy with Light Snow 19 -7 12 -11 73 73 WNW 14 22 30.24 1024 1 2 0.00 0.00
8:52 am 08:52 Mostly Cloudy with Light Snow 20 -6.7 12 -11.1 71 71 WNW 17 28 30.23 1024 7 11 0.00 0.03
8:56 am 08:56 Partly Cloudy 21 -6 10 -12 63 63 WNW 16 26 30.24 1024 8 13 0.00 0.00
9:52 am 09:52 Mostly Cloudy 22 -5.6 -1 -18.3 36 36 NW 28 44 30.25 1025 10 16 0.00 0.03
10:52 am 10:52 Mostly Cloudy 22 -5.6 0 -17.8 38 38 WNW 20 31 30.28 1025 10 16 0.00 0.00
11:52 am 11:52 Partly Cloudy 22 -5.6 -4 -20 31 31 NW 23 37 30.29 1026 10 16 0.00 0.00
12:52 pm 12:52 Mostly Cloudy 21 -6.1 -4 -20 33 33 WNW 18 30 30.28 1026 10 16 0.00 0.00
1:52 pm 13:52 Mostly Cloudy 23 -5 -4 -20 30 30 WNW 23 37 30.29 1026 10 16 0.00 0.00
2:52 pm 14:52 Mostly Cloudy 22 -5.6 -5 -20.6 30 30 NW 26 43 30.29 1026 10 16 0.00 0.00
3:34 pm 15:34 Mostly Cloudy 21 -6 -6 -21 30 30 NW 20 31 30.30 1026 10 16 0.00 0.00
3:52 pm 15:52 Mostly Cloudy 21 -6.1 -6 -21.1 30 30 NW 24 39 30.31 1026 10 16 0.00 0.00
4:52 pm 16:52 Partly Cloudy 20 -6.7 -7 -21.7 29 29 NW 22 35 30.33 1027 10 16 0.00 0.00
5:52 pm 17:52 Partly Cloudy 19 -7.2 -8 -22.2 29 29 NW 17 28 30.39 1029 10 16 0.00 0.00
6:52 pm 18:52 Mostly Clear 18 -7.8 -6 -21.1 34 34 WNW 15 24 30.41 1030 10 16 0.00 0.00
7:52 pm 19:52 Mostly Clear 18 -7.8 -6 -21.1 34 34 NW 15 24 30.43 1031 10 16 0.00 0.00
8:52 pm 20:52 Mostly Clear 17 -8.3 -4 -20 39 39 NW 15 24 30.44 1031 10 16 0.00 0.00
9:52 pm 21:52 Mostly Clear 16 -8.9 -7 -21.7 35 35 NW 16 26 30.45 1031 10 16 0.00 0.00
10:52 pm 22:52 Mostly Clear 16 -8.9 -6 -21.1 37 37 NW 12 19 30.46 1032 10 16 0.00 0.00
11:52 pm 23:52 Mostly Clear 15 -9.4 -5 -20.6 40 40 NW 12 19 30.47 1032 10 16 0.00 0.00

Powered by AerisWeather